Melton West, Australia

4:46 PM AEDT on October 19, 2017 (GMT +1100)
Melton West

Weather History for 94866 - May, 2013

Change the Weather History Date:

Tuesday, May 7, 2013

  Actual Average Record
Temperature  
Mean Temperature 58 °F -  
Max Temperature 68 °F 58 °F - ()
Min Temperature 48 °F 44 °F - ()
Degree Days  
Heating Degree Days 7    
Growing Degree Days 8 (Base 50)    
Moisture  
Dew Point 43 °F    
Average Humidity 60    
Maximum Humidity 82    
Minimum Humidity 28    
Precipitation  
Precipitation 0.00 in 0.06 in - ()
Sea Level Pressure  
Sea Level Pressure 30.26 in    
Wind  
Wind Speed 10 mph ()    
Max Wind Speed 24 mph    
Max Gust Speed 30 mph    
Visibility 8.6 miles    
Events Rain    
T = Trace of Precipitation, MM = Missing Value Source: Averaged Metar Reports

Daily Weather History Graph

Daily Weather History Graph

Search for Another Location

Airport or City:

Trip Planner

Search our weather history database for the weather conditions in past years. The results will help you decide how hot, cold, wet, or windy it might be!

Date:

Astronomy

May. 07, 2013 Rise Set
Actual Time 7:06 AM AEST 5:27 PM AEST
Civil Twilight 6:38 AM AEST 5:55 PM AEST
Nautical Twilight 6:07 AM AEST 6:26 PM AEST
Astronomical Twilight 5:36 AM AEST 6:57 PM AEST
Moon 4:10 AM AEST (5/7) 3:43 PM AEST (5/7)
Length of Visible Light 11h 16m
Length of Day
10h 20m
Waning Crescent, 8% of the Moon is Illuminated
May 7
Waning Crescent
May 10
New
May 18
First Quarter
May 25
Full
Jun 1
Last Quarter

Hourly Weather History & Observations

Time (AEST) Temp. Dew Point Humidity Pressure Visibility Wind Dir Wind Speed Gust Speed Precip Events Conditions
12:00 AM 48 °F 40 °F 64% 30.25 in 19 mi North 8.1 mph - -   Partly Cloudy
12:00 AM 48.2 °F 39.2 °F 71% 30.24 in - North 8.1 mph - N/A   Clear
12:30 AM 48.2 °F 39.2 °F 71% 30.21 in - North 8.1 mph - N/A   Clear
1:00 AM 48 °F 39 °F 62% 30.24 in - North 6.9 mph - -  
1:00 AM 48.2 °F 39.2 °F 71% 30.21 in - North 6.9 mph - N/A   Clear
1:30 AM 48.2 °F 39.2 °F 71% 30.21 in - North 5.8 mph - N/A   Clear
2:00 AM 50.0 °F 37.4 °F 62% 30.21 in - North 10.4 mph - N/A   Clear
2:30 AM 50.0 °F 39.2 °F 66% 30.21 in - North 6.9 mph - N/A   Clear
3:00 AM 49 °F 41 °F 67% 30.23 in 15 mi NNW 2.3 mph - -   Mostly Cloudy
3:00 AM 48.2 °F 41.0 °F 76% 30.21 in 6.2 mi NNW 2.3 mph - N/A   Unknown
3:30 AM 48.2 °F 41.0 °F 76% 30.21 in 6.2 mi Calm Calm - N/A   Unknown
4:00 AM 49 °F 42 °F 69% 30.24 in - West 4.6 mph - -  
4:00 AM 50.0 °F 42.8 °F 76% 30.21 in 6.2 mi West 4.6 mph - N/A   Unknown
4:30 AM 50.0 °F 41.0 °F 71% 30.24 in 6.2 mi West 1.2 mph - N/A   Unknown
5:00 AM 50.0 °F 42.8 °F 76% 30.24 in 6.2 mi North 1.2 mph - N/A   Unknown
5:30 AM 50.0 °F 42.8 °F 76% 30.24 in 6.2 mi North 8.1 mph - N/A Rain Light Rain
6:00 AM 55 °F 39 °F 44% 30.27 in 15 mi North 9.2 mph - - Rain Light Rain
6:00 AM 55.4 °F 39.2 °F 54% 30.24 in 6.2 mi North 9.2 mph - N/A Rain Light Rain
6:30 AM 55.4 °F 41.0 °F 58% 30.27 in 6.2 mi North 11.5 mph - N/A Rain Light Rain
7:00 AM 51.8 °F 44.6 °F 76% 30.27 in 6.2 mi North 11.5 mph - N/A Rain Light Rain
7:30 AM 53.6 °F 44.6 °F 72% 30.27 in - North 12.7 mph - N/A   Clear
8:00 AM 53.6 °F 44.6 °F 72% 30.30 in 6.2 mi North 13.8 mph - N/A Rain Light Rain
8:30 AM 55.4 °F 44.6 °F 67% 30.30 in - North 10.4 mph - N/A   Clear
9:00 AM 54 °F 46 °F 66% 30.33 in 12 mi North 6.9 mph - - Rain Light Rain
9:00 AM 53.6 °F 46.4 °F 77% 30.30 in 6.2 mi North 6.9 mph - N/A Rain Light Rain
9:30 AM 53.6 °F 48.2 °F 82% 30.30 in - North 6.9 mph - N/A   Clear
10:00 AM 56 °F 48 °F 66% 30.32 in - North 9.2 mph - -  
10:00 AM 55.4 °F 48.2 °F 77% 30.30 in - North 9.2 mph 20.7 mph N/A   Clear
10:30 AM 59.0 °F 44.6 °F 59% 30.30 in - North 17.3 mph - N/A   Clear
11:00 AM 62.6 °F 46.4 °F 55% 30.27 in - North 21.9 mph - N/A   Clear
11:30 AM 62.6 °F 42.8 °F 48% 30.27 in - North 24.2 mph - N/A   Clear
12:00 PM 64.4 °F 42.8 °F 45% 30.27 in - North 21.9 mph - N/A   Clear
12:30 PM 66.2 °F 42.8 °F 43% 30.24 in - North 21.9 mph - N/A   Clear
1:00 PM 68 °F 42 °F 28% 30.25 in - North 23.0 mph - -  
1:00 PM 68.0 °F 42.8 °F 40% 30.24 in - North 23.0 mph - N/A   Clear
1:30 PM 64.4 °F 41.0 °F 42% 30.24 in - North 20.7 mph - N/A   Clear
2:00 PM 66.2 °F 41.0 °F 40% 30.24 in - North 23.0 mph - N/A   Clear
2:30 PM 64.4 °F 41.0 °F 42% 30.24 in - NNE 19.6 mph - N/A   Clear
3:00 PM 65 °F 41 °F 30% 30.25 in 25 mi North 18.4 mph - -   Partly Cloudy
3:00 PM 64.4 °F 41.0 °F 42% 30.24 in - North 18.4 mph - N/A   Clear
3:30 PM 64.4 °F 41.0 °F 42% 30.24 in - North 16.1 mph - N/A   Clear
4:00 PM 63 °F 41 °F 33% 30.25 in - North 19.6 mph - -  
4:00 PM 62.6 °F 41.0 °F 45% 30.24 in - North 19.6 mph - N/A   Clear
4:08 PM 62.6 °F 41.0 °F 45% 30.24 in - North 17.3 mph 28.8 mph N/A   Clear
4:30 PM 62.6 °F 42.8 °F 48% 30.24 in - North 15.0 mph - N/A   Clear
5:00 PM 60.8 °F 44.6 °F 55% 30.24 in - North 15.0 mph - N/A   Clear
5:30 PM 60.8 °F 44.6 °F 55% 30.24 in - North 18.4 mph - N/A   Clear
6:00 PM 59 °F 40 °F 39% 30.27 in 25 mi North 20.7 mph - -   Partly Cloudy
6:00 PM 59.0 °F 41.0 °F 51% 30.24 in - North 20.7 mph - N/A   Clear
6:07 PM 59.0 °F 41.0 °F 51% 30.24 in - North 18.4 mph 29.9 mph N/A   Clear
6:30 PM 57.2 °F 42.8 °F 59% 30.27 in - North 16.1 mph - N/A   Clear
7:00 PM 56 °F 44 °F 55% 30.30 in - North 11.5 mph - -  
7:00 PM 55.4 °F 44.6 °F 67% 30.27 in - North 11.5 mph - N/A   Clear
7:30 PM 55.4 °F 46.4 °F 72% 30.30 in - North 10.4 mph - N/A   Clear
8:00 PM 55.4 °F 46.4 °F 72% 30.30 in - North 10.4 mph - N/A   Clear
8:30 PM 55.4 °F 44.6 °F 67% 30.30 in - North 17.3 mph - N/A   Clear
9:00 PM 55 °F 46 °F 62% 30.31 in 25 mi North 16.1 mph - -   Partly Cloudy
9:00 PM 55.4 °F 46.4 °F 72% 30.30 in - North 16.1 mph - N/A   Clear
9:30 PM 55.4 °F 44.6 °F 67% 30.30 in - North 16.1 mph - N/A   Clear
10:00 PM 55 °F 46 °F 62% 30.31 in - North 19.6 mph - -  
10:00 PM 55.4 °F 46.4 °F 72% 30.30 in - North 19.6 mph - N/A   Clear
10:30 PM 53.6 °F 46.4 °F 77% 30.30 in - North 16.1 mph - N/A   Clear
11:00 PM 53.6 °F 46.4 °F 77% 30.30 in - North 16.1 mph - N/A   Clear
11:30 PM 55.4 °F 44.6 °F 67% 30.30 in - North 19.6 mph - N/A   Clear